Year,Month,Day,Hour,Minute,Value (Times are PST for windspeed in km/hr)
2017,08,24,00,00,14.60
2017,08,24,00,01,12.50
2017,08,24,00,02,13.90
2017,08,24,00,03,12.60
2017,08,24,00,04,11.50
2017,08,24,00,05,13.60
2017,08,24,00,06,9.40
2017,08,24,00,07,12.10
2017,08,24,00,08,12.50
2017,08,24,00,09,11.70
2017,08,24,00,10,9.70
2017,08,24,00,11,9.20
2017,08,24,00,12,12.60
2017,08,24,00,13,12.00
2017,08,24,00,14,17.00
2017,08,24,00,15,10.40
2017,08,24,00,16,16.40
2017,08,24,00,17,14.60
2017,08,24,00,18,12.00
2017,08,24,00,19,14.20
2017,08,24,00,20,16.10
2017,08,24,00,21,14.00
2017,08,24,00,22,21.30
2017,08,24,00,23,17.60
2017,08,24,00,24,19.20
2017,08,24,00,25,14.30
2017,08,24,00,26,14.90
2017,08,24,00,27,16.70
2017,08,24,00,28,12.10
2017,08,24,00,29,14.80
2017,08,24,00,30,12.80
2017,08,24,00,31,10.80
2017,08,24,00,32,11.00
2017,08,24,00,33,11.90
2017,08,24,00,34,13.20
2017,08,24,00,35,9.10
2017,08,24,00,36,8.00
2017,08,24,00,37,9.70
2017,08,24,00,38,12.40
2017,08,24,00,39,13.70
2017,08,24,00,40,9.50
2017,08,24,00,41,13.80
2017,08,24,00,42,9.20
2017,08,24,00,43,12.90
2017,08,24,00,44,10.30
2017,08,24,00,45,10.80
2017,08,24,00,46,11.00
2017,08,24,00,47,11.30
2017,08,24,00,48,15.10
2017,08,24,00,49,10.80
2017,08,24,00,50,10.00
2017,08,24,00,51,15.40
2017,08,24,00,52,13.40
2017,08,24,00,53,8.30
2017,08,24,00,54,8.00
2017,08,24,00,55,5.60
2017,08,24,00,56,11.40
2017,08,24,00,57,12.50
2017,08,24,00,58,11.70
2017,08,24,00,59,11.30
2017,08,24,01,00,10.70
2017,08,24,01,01,11.00
2017,08,24,01,02,12.00
2017,08,24,01,03,7.50
2017,08,24,01,04,6.60
2017,08,24,01,05,13.40
2017,08,24,01,06,11.80
2017,08,24,01,07,12.60
2017,08,24,01,08,13.70
2017,08,24,01,09,13.40
2017,08,24,01,10,10.60
2017,08,24,01,11,16.80
2017,08,24,01,12,14.70
2017,08,24,01,13,23.60
2017,08,24,01,14,17.80
2017,08,24,01,15,15.80
2017,08,24,01,16,7.40
2017,08,24,01,17,16.10
2017,08,24,01,18,8.70
2017,08,24,01,19,9.40
2017,08,24,01,20,15.70
2017,08,24,01,21,10.10
2017,08,24,01,22,12.70
2017,08,24,01,23,16.40
2017,08,24,01,24,13.40
2017,08,24,01,25,16.50
2017,08,24,01,26,16.40
2017,08,24,01,27,11.80
2017,08,24,01,28,13.20
2017,08,24,01,29,14.00
2017,08,24,01,30,11.70
2017,08,24,01,31,17.60
2017,08,24,01,32,20.90
2017,08,24,01,33,17.80
2017,08,24,01,34,13.60
2017,08,24,01,35,15.30
2017,08,24,01,36,16.80
2017,08,24,01,37,21.60
2017,08,24,01,38,14.40
2017,08,24,01,39,22.80
2017,08,24,01,40,17.20
2017,08,24,01,41,15.60
2017,08,24,01,42,29.00
2017,08,24,01,43,13.30
2017,08,24,01,44,15.50
2017,08,24,01,45,14.90
2017,08,24,01,46,21.50
2017,08,24,01,47,20.40
2017,08,24,01,48,18.70
2017,08,24,01,49,16.70
2017,08,24,01,50,20.50
2017,08,24,01,51,19.10
2017,08,24,01,52,18.00
2017,08,24,01,53,22.00
2017,08,24,01,54,21.30
2017,08,24,01,55,19.80
2017,08,24,01,56,19.10
2017,08,24,01,57,16.90
2017,08,24,01,58,20.40
2017,08,24,01,59,18.20
2017,08,24,02,00,23.80
2017,08,24,02,01,22.80
2017,08,24,02,02,20.20
2017,08,24,02,03,15.50
2017,08,24,02,04,16.70
2017,08,24,02,05,16.10
2017,08,24,02,06,15.20
2017,08,24,02,07,19.80
2017,08,24,02,08,15.20
2017,08,24,02,09,15.00
2017,08,24,02,10,15.60
2017,08,24,02,11,18.70
2017,08,24,02,12,16.90
2017,08,24,02,13,15.60
2017,08,24,02,14,19.80
2017,08,24,02,15,19.20
2017,08,24,02,16,14.90
2017,08,24,02,17,19.70
2017,08,24,02,18,23.30
2017,08,24,02,19,16.20
2017,08,24,02,20,17.90
2017,08,24,02,21,20.20
2017,08,24,02,22,20.50
2017,08,24,02,23,19.80
2017,08,24,02,24,19.80
2017,08,24,02,25,18.40
2017,08,24,02,26,19.00
2017,08,24,02,27,17.50
2017,08,24,02,28,17.60
2017,08,24,02,29,14.90
2017,08,24,02,30,19.70
2017,08,24,02,31,12.20
2017,08,24,02,32,13.50
2017,08,24,02,33,19.20
2017,08,24,02,34,16.20
2017,08,24,02,35,15.00
2017,08,24,02,36,14.00
2017,08,24,02,37,14.30
2017,08,24,02,38,13.90
2017,08,24,02,39,19.20
2017,08,24,02,40,21.80
2017,08,24,02,41,27.40
2017,08,24,02,42,17.80
2017,08,24,02,43,26.40
2017,08,24,02,44,19.70
2017,08,24,02,45,14.80
2017,08,24,02,46,15.20
2017,08,24,02,47,25.90
2017,08,24,02,48,21.10
2017,08,24,02,49,22.40
2017,08,24,02,50,20.20
2017,08,24,02,51,22.60
2017,08,24,02,52,21.10
2017,08,24,02,53,17.90
2017,08,24,02,54,17.90
2017,08,24,02,55,20.30
2017,08,24,02,56,22.00
2017,08,24,02,57,17.30
2017,08,24,02,58,19.60
2017,08,24,02,59,23.40
2017,08,24,03,00,24.10
2017,08,24,03,01,20.10
2017,08,24,03,02,16.60
2017,08,24,03,03,19.00
2017,08,24,03,04,19.80
2017,08,24,03,05,19.30
2017,08,24,03,06,17.90
2017,08,24,03,07,22.00
2017,08,24,03,08,23.00
2017,08,24,03,09,21.40
2017,08,24,03,10,17.60
2017,08,24,03,11,15.90
2017,08,24,03,12,18.00
2017,08,24,03,13,19.80
2017,08,24,03,14,19.40
2017,08,24,03,15,17.70
2017,08,24,03,16,17.30
2017,08,24,03,17,24.40
2017,08,24,03,18,14.30
2017,08,24,03,19,14.20
2017,08,24,03,20,15.70
2017,08,24,03,21,17.40
2017,08,24,03,22,19.80
2017,08,24,03,23,17.00
2017,08,24,03,24,14.30
2017,08,24,03,25,16.50
2017,08,24,03,26,18.90
2017,08,24,03,27,13.50
2017,08,24,03,28,11.60
2017,08,24,03,29,11.60
2017,08,24,03,30,13.60
2017,08,24,03,31,10.60
2017,08,24,03,32,12.60
2017,08,24,03,33,12.30
2017,08,24,03,34,12.50
2017,08,24,03,35,10.70
2017,08,24,03,36,13.30
2017,08,24,03,37,13.20
2017,08,24,03,38,13.40
2017,08,24,03,39,10.40
2017,08,24,03,40,9.20
2017,08,24,03,41,8.30
2017,08,24,03,42,9.70
2017,08,24,03,43,10.80
2017,08,24,03,44,9.00
2017,08,24,03,45,10.00
2017,08,24,03,46,9.00
2017,08,24,03,47,8.00
2017,08,24,03,48,8.10
2017,08,24,03,49,8.40
2017,08,24,03,50,9.00
2017,08,24,03,51,5.90
2017,08,24,03,52,12.30
2017,08,24,03,53,8.90
2017,08,24,03,54,7.70
2017,08,24,03,55,7.60
2017,08,24,03,56,7.20
2017,08,24,03,57,4.30
2017,08,24,03,58,2.70
2017,08,24,03,59,9.90
2017,08,24,04,00,11.60
2017,08,24,04,01,9.30
2017,08,24,04,02,5.10
2017,08,24,04,03,2.10
2017,08,24,04,04,6.70
2017,08,24,04,05,6.40
2017,08,24,04,06,7.10
2017,08,24,04,07,7.70
2017,08,24,04,08,10.80
2017,08,24,04,09,7.40
2017,08,24,04,10,3.30
2017,08,24,04,11,5.70
2017,08,24,04,12,8.40
2017,08,24,04,13,7.80
2017,08,24,04,14,7.30
2017,08,24,04,15,3.90
2017,08,24,04,16,1.40
2017,08,24,04,17,4.20
2017,08,24,04,18,10.70
2017,08,24,04,19,8.00
2017,08,24,04,20,6.80
2017,08,24,04,21,6.10
2017,08,24,04,22,5.20
2017,08,24,04,23,8.20
2017,08,24,04,24,9.30
2017,08,24,04,25,14.80
2017,08,24,04,26,8.60
2017,08,24,04,27,9.40
2017,08,24,04,28,10.20
2017,08,24,04,29,9.40
2017,08,24,04,30,10.00
2017,08,24,04,31,5.80
2017,08,24,04,32,10.60
2017,08,24,04,33,10.40
2017,08,24,04,34,9.40
2017,08,24,04,35,11.90
2017,08,24,04,36,9.30
2017,08,24,04,37,13.20
2017,08,24,04,38,7.20
2017,08,24,04,39,5.10
2017,08,24,04,40,8.90
2017,08,24,04,41,14.60
2017,08,24,04,42,7.20
2017,08,24,04,43,10.60
2017,08,24,04,44,12.00
2017,08,24,04,45,9.50
2017,08,24,04,46,9.00
2017,08,24,04,47,9.00
2017,08,24,04,48,7.90
2017,08,24,04,49,9.60
2017,08,24,04,50,7.10
2017,08,24,04,51,5.60
2017,08,24,04,52,3.40
2017,08,24,04,53,6.30
2017,08,24,04,54,4.10
2017,08,24,04,55,6.60
2017,08,24,04,56,5.80
2017,08,24,04,57,7.00
2017,08,24,04,58,2.60
2017,08,24,04,59,3.40
2017,08,24,05,00,2.60
2017,08,24,05,01,8.50
2017,08,24,05,02,5.60
2017,08,24,05,03,3.40
2017,08,24,05,04,4.50
2017,08,24,05,05,11.70
2017,08,24,05,06,6.60
2017,08,24,05,07,1.30
2017,08,24,05,08,2.90
2017,08,24,05,09,0.20
2017,08,24,05,10,4.60
2017,08,24,05,11,4.70
2017,08,24,05,12,0.80
2017,08,24,05,13,0.00
2017,08,24,05,14,1.60
2017,08,24,05,15,3.90
2017,08,24,05,16,2.30
2017,08,24,05,17,1.20
2017,08,24,05,18,2.20
2017,08,24,05,19,2.80
2017,08,24,05,20,1.60
2017,08,24,05,21,2.30
2017,08,24,05,22,3.30
2017,08,24,05,23,0.00
2017,08,24,05,24,4.80
2017,08,24,05,25,1.40
2017,08,24,05,26,0.70
2017,08,24,05,27,5.40
2017,08,24,05,28,1.80
2017,08,24,05,29,0.10
2017,08,24,05,30,2.80
2017,08,24,05,31,1.80
2017,08,24,05,32,0.00
2017,08,24,05,33,0.00
2017,08,24,05,34,0.10
2017,08,24,05,35,0.50
2017,08,24,05,36,2.20
2017,08,24,05,37,1.90
2017,08,24,05,38,1.10
2017,08,24,05,39,0.00
2017,08,24,05,40,0.00
2017,08,24,05,41,3.30
2017,08,24,05,42,0.20
2017,08,24,05,43,0.00
2017,08,24,05,44,0.60
2017,08,24,05,45,0.60
2017,08,24,05,46,0.00
2017,08,24,05,47,0.00
2017,08,24,05,48,0.00
2017,08,24,05,49,0.00
2017,08,24,05,50,1.50
2017,08,24,05,51,0.90
2017,08,24,05,52,0.00
2017,08,24,05,53,0.10
2017,08,24,05,54,4.60
2017,08,24,05,55,1.10
2017,08,24,05,56,5.20
2017,08,24,05,57,4.60
2017,08,24,05,58,2.40
2017,08,24,05,59,2.30
2017,08,24,06,00,4.80
2017,08,24,06,01,1.00
2017,08,24,06,02,0.00
2017,08,24,06,03,0.00
2017,08,24,06,04,0.00
2017,08,24,06,05,0.00
2017,08,24,06,06,4.80
2017,08,24,06,07,3.30
2017,08,24,06,08,2.40
2017,08,24,06,09,2.50
2017,08,24,06,10,0.60
2017,08,24,06,11,0.00
2017,08,24,06,12,0.30
2017,08,24,06,13,3.70
2017,08,24,06,14,4.60
2017,08,24,06,15,0.30
2017,08,24,06,16,0.00
2017,08,24,06,17,0.00
2017,08,24,06,18,0.00
2017,08,24,06,19,0.40
2017,08,24,06,20,3.90
2017,08,24,06,21,1.10
2017,08,24,06,22,1.20
2017,08,24,06,23,3.70
2017,08,24,06,24,2.70
2017,08,24,06,25,2.20
2017,08,24,06,26,2.20
2017,08,24,06,27,4.80
2017,08,24,06,28,3.90
2017,08,24,06,29,3.50
2017,08,24,06,30,3.80
2017,08,24,06,31,4.40
2017,08,24,06,32,2.00
2017,08,24,06,33,2.50
2017,08,24,06,34,2.40
2017,08,24,06,35,3.10
2017,08,24,06,36,2.80
2017,08,24,06,37,6.00
2017,08,24,06,38,3.90
2017,08,24,06,39,1.00
2017,08,24,06,40,2.40
2017,08,24,06,41,0.10
2017,08,24,06,42,0.00
2017,08,24,06,43,0.00
2017,08,24,06,44,0.00
2017,08,24,06,45,1.00
2017,08,24,06,46,4.00
2017,08,24,06,47,3.70
2017,08,24,06,48,3.90
2017,08,24,06,49,4.70
2017,08,24,06,50,1.00
2017,08,24,06,51,1.80
2017,08,24,06,52,2.90
2017,08,24,06,53,1.30
2017,08,24,06,54,0.40
2017,08,24,06,55,0.00
2017,08,24,06,56,0.00
2017,08,24,06,57,0.00
2017,08,24,06,58,0.00
2017,08,24,06,59,0.00
2017,08,24,07,00,0.00
2017,08,24,07,01,0.00
2017,08,24,07,02,0.00
2017,08,24,07,03,1.70
2017,08,24,07,04,2.50
2017,08,24,07,05,0.50
2017,08,24,07,06,0.00
2017,08,24,07,07,0.00
2017,08,24,07,08,0.00
2017,08,24,07,09,0.00
2017,08,24,07,10,0.00
2017,08,24,07,11,0.00
2017,08,24,07,12,0.00
2017,08,24,07,13,0.00
2017,08,24,07,14,0.00
2017,08,24,07,15,0.00
2017,08,24,07,16,0.00
2017,08,24,07,17,0.70
2017,08,24,07,18,3.10
2017,08,24,07,19,1.40
2017,08,24,07,20,0.00
2017,08,24,07,21,0.30
2017,08,24,07,22,0.10
2017,08,24,07,23,0.00
2017,08,24,07,24,0.00
2017,08,24,07,25,0.00
2017,08,24,07,26,0.00
2017,08,24,07,27,1.20
2017,08,24,07,28,0.00
2017,08,24,07,29,0.00
2017,08,24,07,30,0.00
2017,08,24,07,31,0.00
2017,08,24,07,32,0.00
2017,08,24,07,33,0.00
2017,08,24,07,34,0.00
2017,08,24,07,35,0.00
2017,08,24,07,36,0.00
2017,08,24,07,37,0.00
2017,08,24,07,38,5.70
2017,08,24,07,39,8.30
2017,08,24,07,40,3.50
2017,08,24,07,41,0.30
2017,08,24,07,42,0.00
2017,08,24,07,43,0.00
2017,08,24,07,44,1.10
2017,08,24,07,45,2.80
2017,08,24,07,46,3.10
2017,08,24,07,47,0.10
2017,08,24,07,48,5.40
2017,08,24,07,49,6.40
2017,08,24,07,50,5.20
2017,08,24,07,51,0.00
2017,08,24,07,52,2.50
2017,08,24,07,53,3.90
2017,08,24,07,54,6.70
2017,08,24,07,55,3.30
2017,08,24,07,56,3.20
2017,08,24,07,57,1.90
2017,08,24,07,58,0.00
2017,08,24,07,59,1.40
2017,08,24,08,00,3.40
2017,08,24,08,01,4.80
2017,08,24,08,02,11.70
2017,08,24,08,03,9.80
2017,08,24,08,04,6.90
2017,08,24,08,05,2.90
2017,08,24,08,06,0.80
2017,08,24,08,07,1.70
2017,08,24,08,08,2.10
2017,08,24,08,09,2.90
2017,08,24,08,10,6.30
2017,08,24,08,11,4.80
2017,08,24,08,12,7.20
2017,08,24,08,13,5.40
2017,08,24,08,14,9.00
2017,08,24,08,15,9.60
2017,08,24,08,16,4.80
2017,08,24,08,17,6.60
2017,08,24,08,18,1.00
2017,08,24,08,19,4.30
2017,08,24,08,20,6.00
2017,08,24,08,21,5.30
2017,08,24,08,22,5.60
2017,08,24,08,23,1.20
2017,08,24,08,24,1.10
2017,08,24,08,25,2.30
2017,08,24,08,26,0.50
2017,08,24,08,27,0.00
2017,08,24,08,28,0.50
2017,08,24,08,29,2.70
2017,08,24,08,30,0.00
2017,08,24,08,31,0.20
2017,08,24,08,32,0.60
2017,08,24,08,33,7.90
2017,08,24,08,34,8.30
2017,08,24,08,35,6.00
2017,08,24,08,36,0.50
2017,08,24,08,37,4.40
2017,08,24,08,38,2.40
2017,08,24,08,39,7.20
2017,08,24,08,40,6.70
2017,08,24,08,41,1.20
2017,08,24,08,42,7.10
2017,08,24,08,43,10.50
2017,08,24,08,44,8.00
2017,08,24,08,45,5.50
2017,08,24,08,46,1.50
2017,08,24,08,47,5.20
2017,08,24,08,48,6.20
2017,08,24,08,49,6.50
2017,08,24,08,50,6.90
2017,08,24,08,51,5.70
2017,08,24,08,52,7.40
2017,08,24,08,53,8.10
2017,08,24,08,54,9.00
2017,08,24,08,55,3.90
2017,08,24,08,56,6.80
2017,08,24,08,57,2.60
2017,08,24,08,58,6.80
2017,08,24,08,59,8.70
2017,08,24,09,00,10.10
2017,08,24,09,01,2.40
2017,08,24,09,02,7.50
2017,08,24,09,03,7.80
2017,08,24,09,04,8.20
2017,08,24,09,05,8.00
2017,08,24,09,06,9.60
2017,08,24,09,07,7.20
2017,08,24,09,08,12.10
2017,08,24,09,09,8.20
2017,08,24,09,10,12.90
2017,08,24,09,11,6.50
2017,08,24,09,12,7.80
2017,08,24,09,13,11.50
2017,08,24,09,14,4.90
2017,08,24,09,15,9.50
2017,08,24,09,16,4.50
2017,08,24,09,17,6.90
2017,08,24,09,18,10.50
2017,08,24,09,19,8.90
2017,08,24,09,20,9.90
2017,08,24,09,21,9.10
2017,08,24,09,22,7.30
2017,08,24,09,23,6.00
2017,08,24,09,24,5.20
2017,08,24,09,25,4.40
2017,08,24,09,26,5.20
2017,08,24,09,27,3.10
2017,08,24,09,28,7.60
2017,08,24,09,29,9.30
2017,08,24,09,30,8.70
2017,08,24,09,31,10.90
2017,08,24,09,32,11.30
2017,08,24,09,33,12.90
2017,08,24,09,34,13.40
2017,08,24,09,35,10.40
2017,08,24,09,36,9.40
2017,08,24,09,37,7.00
2017,08,24,09,38,4.50
2017,08,24,09,39,5.80
2017,08,24,09,40,10.50
2017,08,24,09,41,10.00
2017,08,24,09,42,12.40
2017,08,24,09,43,11.30
2017,08,24,09,44,13.80
2017,08,24,09,45,8.70
2017,08,24,09,46,8.90
2017,08,24,09,47,7.90
2017,08,24,09,48,7.60
2017,08,24,09,49,11.00
2017,08,24,09,50,11.60
2017,08,24,09,51,11.70
2017,08,24,09,52,6.20
2017,08,24,09,53,6.70
2017,08,24,09,54,9.20
2017,08,24,09,55,7.70
2017,08,24,09,56,7.10
2017,08,24,09,57,8.80
2017,08,24,09,58,10.10
2017,08,24,09,59,14.40
2017,08,24,10,00,9.60
2017,08,24,10,01,6.40
2017,08,24,10,02,7.50
2017,08,24,10,03,5.30
2017,08,24,10,04,13.60
2017,08,24,10,05,3.10
2017,08,24,10,06,11.30
2017,08,24,10,07,12.00
2017,08,24,10,08,9.20
2017,08,24,10,09,17.90
2017,08,24,10,10,17.10
2017,08,24,10,11,12.70
2017,08,24,10,12,10.50
2017,08,24,10,13,15.70
2017,08,24,10,14,7.10
2017,08,24,10,15,12.90
2017,08,24,10,16,14.10
2017,08,24,10,17,13.70
2017,08,24,10,18,14.20
2017,08,24,10,19,12.40
2017,08,24,10,20,8.60
2017,08,24,10,21,15.20
2017,08,24,10,22,12.00
2017,08,24,10,23,9.00
2017,08,24,10,24,8.50
2017,08,24,10,25,12.10
2017,08,24,10,26,13.40
2017,08,24,10,27,13.60
2017,08,24,10,28,13.20
2017,08,24,10,29,16.10
2017,08,24,10,30,13.60
2017,08,24,10,31,10.30
2017,08,24,10,32,10.00
2017,08,24,10,33,13.00
2017,08,24,10,34,10.90
2017,08,24,10,35,6.90
2017,08,24,10,36,8.90
2017,08,24,10,37,9.40
2017,08,24,10,38,10.60
2017,08,24,10,39,12.60
2017,08,24,10,40,14.10
2017,08,24,10,41,15.50
2017,08,24,10,42,9.60
2017,08,24,10,43,12.00
2017,08,24,10,44,7.30
2017,08,24,10,45,11.30
2017,08,24,10,46,10.80
2017,08,24,10,47,9.90
2017,08,24,10,48,16.30
2017,08,24,10,49,11.60
2017,08,24,10,50,8.00
2017,08,24,10,51,9.10
2017,08,24,10,52,10.00
2017,08,24,10,53,5.00
2017,08,24,10,54,10.30
2017,08,24,10,55,8.90
2017,08,24,10,56,13.40
2017,08,24,10,57,14.10
2017,08,24,10,58,3.40
2017,08,24,10,59,6.40
2017,08,24,11,00,11.40
2017,08,24,11,01,11.40
2017,08,24,11,02,2.80
2017,08,24,11,03,7.00
2017,08,24,11,04,7.70
2017,08,24,11,05,12.60
2017,08,24,11,06,11.00
2017,08,24,11,07,9.60
2017,08,24,11,08,14.10
2017,08,24,11,09,8.60
2017,08,24,11,10,10.00
2017,08,24,11,11,9.40
2017,08,24,11,12,11.50
2017,08,24,11,13,6.70
2017,08,24,11,14,10.00
2017,08,24,11,15,8.90
2017,08,24,11,16,10.10
2017,08,24,11,17,10.20
2017,08,24,11,18,12.20
2017,08,24,11,19,11.30
2017,08,24,11,20,19.10
2017,08,24,11,21,18.60
2017,08,24,11,22,16.20
2017,08,24,11,23,17.70
2017,08,24,11,24,11.90
2017,08,24,11,25,12.60
2017,08,24,11,26,16.00
2017,08,24,11,27,15.90
2017,08,24,11,28,11.40
2017,08,24,11,29,15.30
2017,08,24,11,30,7.80
2017,08,24,11,31,11.80
2017,08,24,11,32,8.60
2017,08,24,11,33,10.50
2017,08,24,11,34,16.20
2017,08,24,11,35,12.60
2017,08,24,11,36,10.30
2017,08,24,11,37,9.70
2017,08,24,11,38,11.40
2017,08,24,11,39,9.90
2017,08,24,11,40,10.50
2017,08,24,11,41,8.80
2017,08,24,11,42,9.50
2017,08,24,11,43,10.00
2017,08,24,11,44,11.80
2017,08,24,11,45,10.00
2017,08,24,11,46,10.80
2017,08,24,11,47,10.70
2017,08,24,11,48,11.00
2017,08,24,11,49,9.90
2017,08,24,11,50,13.30
2017,08,24,11,51,11.90
2017,08,24,11,52,14.40
2017,08,24,11,53,14.70
2017,08,24,11,54,12.80
2017,08,24,11,55,16.60
2017,08,24,11,56,9.30
2017,08,24,11,57,12.30
2017,08,24,11,58,14.60
2017,08,24,11,59,10.20
2017,08,24,12,00,11.70
2017,08,24,12,01,11.00
2017,08,24,12,02,15.20
2017,08,24,12,03,14.20
2017,08,24,12,04,15.10
2017,08,24,12,05,13.60
2017,08,24,12,06,14.10
2017,08,24,12,07,9.50
2017,08,24,12,08,12.60
2017,08,24,12,09,16.80
2017,08,24,12,10,9.50
2017,08,24,12,11,13.60
2017,08,24,12,12,12.20
2017,08,24,12,13,12.40
2017,08,24,12,14,19.00
2017,08,24,12,15,18.40
2017,08,24,12,16,16.60
2017,08,24,12,17,15.20
2017,08,24,12,18,13.50
2017,08,24,12,19,12.20
2017,08,24,12,20,13.00
2017,08,24,12,21,13.00
2017,08,24,12,22,10.30
2017,08,24,12,23,14.40
2017,08,24,12,24,11.40
2017,08,24,12,25,8.90
2017,08,24,12,26,9.10
2017,08,24,12,27,10.40
2017,08,24,12,28,13.60
2017,08,24,12,29,9.70
2017,08,24,12,30,2.70
2017,08,24,12,31,10.20
2017,08,24,12,32,9.20
2017,08,24,12,33,10.20
2017,08,24,12,34,10.70
2017,08,24,12,35,6.30
2017,08,24,12,36,5.90
2017,08,24,12,37,6.80
2017,08,24,12,38,12.00
2017,08,24,12,39,10.30
2017,08,24,12,40,9.60
2017,08,24,12,41,4.70
2017,08,24,12,42,6.90
2017,08,24,12,43,15.80
2017,08,24,12,44,14.80
2017,08,24,12,45,10.50
2017,08,24,12,46,8.00
2017,08,24,12,47,10.40
2017,08,24,12,48,4.30
2017,08,24,12,49,7.00
2017,08,24,12,50,10.10
2017,08,24,12,51,11.30
2017,08,24,12,52,10.60
2017,08,24,12,53,9.30
2017,08,24,12,54,7.40
2017,08,24,12,55,3.30
2017,08,24,12,56,10.80
2017,08,24,12,57,12.60
2017,08,24,12,58,14.60
2017,08,24,12,59,13.90
2017,08,24,13,00,7.20
2017,08,24,13,01,7.40
2017,08,24,13,02,8.80
2017,08,24,13,03,12.10
2017,08,24,13,04,5.60
2017,08,24,13,05,11.30
2017,08,24,13,06,14.30
2017,08,24,13,07,10.90
2017,08,24,13,08,6.50
2017,08,24,13,09,8.60
2017,08,24,13,10,8.50
2017,08,24,13,11,4.50
2017,08,24,13,12,7.40
2017,08,24,13,13,10.60
2017,08,24,13,14,8.00
2017,08,24,13,15,8.40
2017,08,24,13,16,5.40
2017,08,24,13,17,11.30
2017,08,24,13,18,7.80
2017,08,24,13,19,10.60
2017,08,24,13,20,10.40
2017,08,24,13,21,10.10
2017,08,24,13,22,10.80
2017,08,24,13,23,8.90
2017,08,24,13,24,14.20
2017,08,24,13,25,9.10
2017,08,24,13,26,10.90
2017,08,24,13,27,9.90
2017,08,24,13,28,13.80
2017,08,24,13,29,13.90
2017,08,24,13,30,12.50
2017,08,24,13,31,12.30
2017,08,24,13,32,16.80
2017,08,24,13,33,12.30
2017,08,24,13,34,10.00
2017,08,24,13,35,15.90
2017,08,24,13,36,17.20
2017,08,24,13,37,16.40
2017,08,24,13,38,11.60
2017,08,24,13,39,9.70
2017,08,24,13,40,9.70
2017,08,24,13,41,9.30
2017,08,24,13,42,12.00
2017,08,24,13,43,11.80
2017,08,24,13,44,13.00
2017,08,24,13,45,11.10
2017,08,24,13,46,5.90
2017,08,24,13,47,12.40
2017,08,24,13,48,11.80
2017,08,24,13,49,14.20
2017,08,24,13,50,8.10
2017,08,24,13,51,12.40
2017,08,24,13,52,11.90
2017,08,24,13,53,8.30
2017,08,24,13,54,9.00
2017,08,24,13,55,13.10
2017,08,24,13,56,11.00
2017,08,24,13,57,9.40
2017,08,24,13,58,15.90
2017,08,24,13,59,12.20
2017,08,24,14,00,13.00
2017,08,24,14,01,17.50
2017,08,24,14,02,16.80
2017,08,24,14,03,13.70
2017,08,24,14,04,10.00
2017,08,24,14,05,11.10
2017,08,24,14,06,11.60
2017,08,24,14,07,8.00
2017,08,24,14,08,10.20
2017,08,24,14,09,9.30
2017,08,24,14,10,8.30
2017,08,24,14,11,9.70
2017,08,24,14,12,13.00
2017,08,24,14,13,15.30
2017,08,24,14,14,13.70
2017,08,24,14,15,19.90
2017,08,24,14,16,10.60
2017,08,24,14,17,8.00
2017,08,24,14,18,14.30
2017,08,24,14,19,9.30
2017,08,24,14,20,15.40
2017,08,24,14,21,14.20
2017,08,24,14,22,15.60
2017,08,24,14,23,13.80
2017,08,24,14,24,12.00
2017,08,24,14,25,15.80
2017,08,24,14,26,15.50
2017,08,24,14,27,17.00
2017,08,24,14,28,13.40
2017,08,24,14,29,14.30
2017,08,24,14,30,18.60
2017,08,24,14,31,13.80
2017,08,24,14,32,10.60
2017,08,24,14,33,12.50
2017,08,24,14,34,13.80
2017,08,24,14,35,11.80
2017,08,24,14,36,7.90
2017,08,24,14,37,17.30
2017,08,24,14,38,16.70
2017,08,24,14,39,12.30
2017,08,24,14,40,12.00
2017,08,24,14,41,12.20
2017,08,24,14,42,14.10
2017,08,24,14,43,15.90
2017,08,24,14,44,15.30
2017,08,24,14,45,12.60
2017,08,24,14,46,14.80
2017,08,24,14,47,15.20
2017,08,24,14,48,14.00
2017,08,24,14,49,16.40
2017,08,24,14,50,12.30
2017,08,24,14,51,20.10
2017,08,24,14,52,10.30
2017,08,24,14,53,10.00
2017,08,24,14,54,14.70
2017,08,24,14,55,9.90
2017,08,24,14,56,9.80
2017,08,24,14,57,13.90
2017,08,24,14,58,15.50
2017,08,24,14,59,10.80
2017,08,24,15,00,17.60
2017,08,24,15,01,14.00
2017,08,24,15,02,13.60
2017,08,24,15,03,14.70
2017,08,24,15,04,15.30
2017,08,24,15,05,13.30
2017,08,24,15,06,14.20
2017,08,24,15,07,15.20
2017,08,24,15,08,16.20
2017,08,24,15,09,14.50
2017,08,24,15,10,13.50
2017,08,24,15,11,13.10
2017,08,24,15,12,9.20
2017,08,24,15,13,10.40
2017,08,24,15,14,10.60
2017,08,24,15,15,9.70
2017,08,24,15,16,15.60
2017,08,24,15,17,11.80
2017,08,24,15,18,19.20
2017,08,24,15,19,17.50
2017,08,24,15,20,17.00
2017,08,24,15,21,11.80
2017,08,24,15,22,16.90
2017,08,24,15,23,15.50
2017,08,24,15,24,6.80
2017,08,24,15,25,13.10
2017,08,24,15,26,13.70
2017,08,24,15,27,14.70
2017,08,24,15,28,12.30
2017,08,24,15,29,8.70
2017,08,24,15,30,11.80
2017,08,24,15,31,15.60
2017,08,24,15,32,10.50
2017,08,24,15,33,19.10
2017,08,24,15,34,16.80
2017,08,24,15,35,14.90
2017,08,24,15,36,14.90
2017,08,24,15,37,13.80
2017,08,24,15,38,17.00
2017,08,24,15,39,17.00
2017,08,24,15,40,9.50
2017,08,24,15,41,15.30
2017,08,24,15,42,13.10
2017,08,24,15,43,14.50
2017,08,24,15,44,10.90
2017,08,24,15,45,12.10
2017,08,24,15,46,13.60
2017,08,24,15,47,15.10
2017,08,24,15,48,12.00
2017,08,24,15,49,11.30
2017,08,24,15,50,14.60
2017,08,24,15,51,9.40
2017,08,24,15,52,18.20
2017,08,24,15,53,13.20
2017,08,24,15,54,13.00
2017,08,24,15,55,12.80
2017,08,24,15,56,14.20
2017,08,24,15,57,15.20
2017,08,24,15,58,16.20
2017,08,24,15,59,13.50
2017,08,24,16,00,11.30
2017,08,24,16,01,16.20
2017,08,24,16,02,17.90
2017,08,24,16,03,20.90
2017,08,24,16,04,13.90
2017,08,24,16,05,13.30
2017,08,24,16,06,11.80
2017,08,24,16,07,10.10
2017,08,24,16,08,15.00
2017,08,24,16,09,21.90
2017,08,24,16,10,13.60
2017,08,24,16,11,19.80
2017,08,24,16,12,19.60
2017,08,24,16,13,12.20
2017,08,24,16,14,21.60
2017,08,24,16,15,13.70
2017,08,24,16,16,16.30
2017,08,24,16,17,10.20
2017,08,24,16,18,14.80
2017,08,24,16,19,12.70
2017,08,24,16,20,13.10
2017,08,24,16,21,17.90
2017,08,24,16,22,14.30
2017,08,24,16,23,13.60
2017,08,24,16,24,14.20
2017,08,24,16,25,15.10
2017,08,24,16,26,10.90
2017,08,24,16,27,10.30
2017,08,24,16,28,10.50
2017,08,24,16,29,8.90
2017,08,24,16,30,11.80
2017,08,24,16,31,17.90
2017,08,24,16,32,15.90
2017,08,24,16,33,15.90
2017,08,24,16,34,12.00
2017,08,24,16,35,10.00
2017,08,24,16,36,8.10
2017,08,24,16,37,12.20
2017,08,24,16,38,9.00
2017,08,24,16,39,17.10
2017,08,24,16,40,16.90
2017,08,24,16,41,11.70
2017,08,24,16,42,8.70
2017,08,24,16,43,8.80
2017,08,24,16,44,10.30
2017,08,24,16,45,10.30
2017,08,24,16,46,8.50
2017,08,24,16,47,12.70
2017,08,24,16,48,7.70
2017,08,24,16,49,9.00
2017,08,24,16,50,6.70
2017,08,24,16,51,10.60
2017,08,24,16,52,9.30
2017,08,24,16,53,14.20
2017,08,24,16,54,10.20
2017,08,24,16,55,10.50
2017,08,24,16,56,10.20
2017,08,24,16,57,13.70
2017,08,24,16,58,14.20
2017,08,24,16,59,16.30
2017,08,24,17,00,10.70
2017,08,24,17,01,12.30
2017,08,24,17,02,13.60
2017,08,24,17,03,12.70
2017,08,24,17,04,11.70
2017,08,24,17,05,13.70
2017,08,24,17,06,20.20
2017,08,24,17,07,7.50
2017,08,24,17,08,10.00
2017,08,24,17,09,9.50
2017,08,24,17,10,5.70
2017,08,24,17,11,15.90
2017,08,24,17,12,13.60
2017,08,24,17,13,12.10
2017,08,24,17,14,17.70
2017,08,24,17,15,10.80
2017,08,24,17,16,17.10
2017,08,24,17,17,12.00
2017,08,24,17,18,14.40
2017,08,24,17,19,13.20
2017,08,24,17,20,18.60
2017,08,24,17,21,11.90
2017,08,24,17,22,13.90
2017,08,24,17,23,15.60
2017,08,24,17,24,11.90
2017,08,24,17,25,7.80
2017,08,24,17,26,12.40
2017,08,24,17,27,12.10
2017,08,24,17,28,11.70
2017,08,24,17,29,13.00
2017,08,24,17,30,10.60
2017,08,24,17,31,9.30
2017,08,24,17,32,8.70
2017,08,24,17,33,12.70
2017,08,24,17,34,14.90
2017,08,24,17,35,10.20
2017,08,24,17,36,9.30
2017,08,24,17,37,11.00
2017,08,24,17,38,11.30
2017,08,24,17,39,13.50